This is the latest recevied weather packets stored in our database for station/object CX5ACA-13. If no packets are shown the sender has not sent any weather packets the latest 10 day(s).
| Time | Temp. | Humidity | Pressure | Rain* | Wind** | Luminosity | Snow |
|---|---|---|---|---|---|---|---|
| 1777796373 | 12.78° C | 72% | 1024.7 hPa | 0 mm | - | 0 W/m² | - |
| 1777796068 | 13.33° C | 70% | 1024.9 hPa | 0 mm | - | 0 W/m² | - |
| 1777795765 | 12.78° C | 70% | 1024.8 hPa | 0 mm | - | 0 W/m² | - |
| 1777795462 | 12.78° C | 69% | 1024.9 hPa | 0 mm | - | 0 W/m² | - |
| 1777795158 | 12.78° C | 67% | 1024.8 hPa | 0 mm | - | 0 W/m² | - |
| 1777794855 | 13.33° C | 66% | 1024.7 hPa | 0 mm | - | 0 W/m² | - |
| 1777794551 | 13.33° C | 64% | 1024.7 hPa | 0 mm | - | 0 W/m² | - |
| 1777794246 | 13.33° C | 63% | 1024.8 hPa | 0 mm | - | 0 W/m² | - |
| 1777793943 | 13.33° C | 62% | 1024.8 hPa | 0 mm | - | 0 W/m² | - |
| 1777793640 | 13.33° C | 62% | 1024.6 hPa | 0 mm | - | 0 W/m² | - |
| 1777793338 | 13.33° C | 61% | 1024.9 hPa | 0 mm | - | 0 W/m² | - |
| 1777793035 | 13.89° C | 60% | 1024.7 hPa | 0 mm | - | 0 W/m² | - |
| 1777792731 | 13.89° C | 60% | 1024.7 hPa | 0 mm | - | 0 W/m² | - |
| 1777792429 | 13.33° C | 60% | 1024.8 hPa | 0 mm | - | 0 W/m² | - |
| 1777792125 | 13.89° C | 59% | 1025.1 hPa | 0 mm | - | 0 W/m² | - |
| 1777791823 | 13.89° C | 59% | 1025 hPa | 0 mm | - | 0 W/m² | - |
| 1777791521 | 13.89° C | 58% | 1024.9 hPa | 0 mm | - | 0 W/m² | - |
| 1777791218 | 13.89° C | 58% | 1025.1 hPa | 0 mm | - | 0 W/m² | - |
| 1777790915 | 13.89° C | 58% | 1025 hPa | 0 mm | - | 0 W/m² | - |
| 1777790613 | 13.89° C | 57% | 1025.2 hPa | 0 mm | - | 0 W/m² | - |
| 1777790309 | 13.89° C | 57% | 1025.2 hPa | 0 mm | - | 0 W/m² | - |
| 1777790008 | 13.89° C | 56% | 1025.2 hPa | 0 mm | - | 0 W/m² | - |
| 1777789705 | 13.89° C | 56% | 1025.4 hPa | 0 mm | - | 0 W/m² | - |
| 1777789405 | 13.89° C | 57% | 1025.2 hPa | 0 mm | - | 0 W/m² | - |
| 1777789102 | 14.44° C | 55% | 1025.5 hPa | 0 mm | - | 0 W/m² | - |
* Rain latest hour (hover to see other rain measurements)
** Current wind speed in m/s (hover to see current wind gust speed)